Starlink 31446

operational
NORAD ID: 59315 Int'l Des: 2024-056 Owner: SPXS Country: US Constellation: starlink
LEOCIRCULAR

Über Starlink 31446

Beschreibung wird geladen...

Live-Position

3D-Globus wird geladen...

Nächste Überflüge

Höhenverlauf

Altitude vs Time

uPlot chart will show altitude changes over time

Zweizeiliger Elementsatz

1 59315U 24056V 25259.01691422 .00003012 00000-0 11887-3 0 9992
2 59315 43.0024 136.8860 0001185 271.6686 88.4030 15.27600770 84449
Epoch: 16. Sept. 2025 • Age: 19 hours

Aktueller Status

Höhe 484.5 km
Geschwindigkeit 7.63 km/s
Subsatellitenpunkt 31.73°N, 21.97°W
Startdatum 24. März 2024
Alter 1.4 years
Typ internet

Technische Details

Klassifizierung Payload
Masse 730.00 kg
Trockenmasse 700.00 kg
Gesamtmasse 730.00 kg
Länge 0.30 m
Durchmesser 4.10 m
Spannweite 29.00 m
Form Box + pan
Hersteller SPXS
Bus-Typ Starlink V2M
Phasenstatus In Orbit
Besitzer/Staat SPXS/US

Große Konstellationen

Loading constellations...